Weather observations for the past three days for
Tampa, Tampa International Airport
Imperial (Metric)
Date Time (edt) Wind (mph) Vis. (mi.) Weather Sky Cond. Temperature (ºF) Relative Humidity Wind Chill (°F) Heat Index (°F) Pressure Precipitation (in)
Air Dwpt 6 hour altimeter (in) sea level (mb) 1 hr 3 hr 6 hr
Max. Min.
25 10:53 SW 5 10.00 Mostly Cloudy SCT018 BKN025 BKN090 82.9 78.1 85% 93 30 1015.8
25 09:53 SW 3 10.00 Mostly Cloudy FEW015 FEW035 SCT110 BKN250 84.9 78.1 80% 97 29.98 1015.0
25 08:53 S 3 10.00 Mostly Cloudy FEW035 SCT120 BKN250 84 78.1 82% 95 29.98 1015.0
25 07:53 Calm 10.00 Mostly Cloudy FEW035 SCT120 BKN250 82 77 82 79 85% 90 29.96 1014.3
25 06:53 Calm 10.00 Mostly Cloudy FEW030 SCT120 BKN250 80.1 75.9 87% 85 29.94 1013.9
25 05:53 N 3 10.00 Mostly Cloudy BKN120 BKN250 80.1 75.9 87% 85 29.93 1013.5
25 04:53 N 6 10.00 Overcast OVC130 80.1 75.9 87% 85 29.93 1013.4
25 03:53 N 3 10.00 Overcast OVC120 80.1 75.9 87% 85 29.92 1013.3
25 02:53 NW 7 10.00 Overcast FEW011 OVC110 80.1 77 90% 86 29.93 1013.5
25 01:53 W 6 10.00 Overcast SCT011 OVC110 80.1 77 84.9 79 90% 86 29.95 1014.0
25 00:53 SW 3 10.00 Mostly Cloudy SCT030 SCT045 BKN100 BKN250 79 75.9 90% 83 29.96 1014.6
24 23:53 SE 3 10.00 Mostly Cloudy SCT027 BKN033 BKN045 79 75.9 90% 83 29.98 1015.2
24 22:53 S 9 10.00 Mostly Cloudy FEW010 SCT028 BKN060 BKN250 79 77 94% 83 29.96 1014.6
24 21:53 SE 7 10.00 Mostly Cloudy SCT028 BKN060 BKN250 81 75.9 85% 87 29.95 1014.2
24 20:53 SW 3 10.00 Mostly Cloudy FEW030 SCT070 SCT110 BKN250 82.9 75.9 79% 91 29.94 1013.7
24 19:53 Calm 10.00 Partly Cloudy FEW032 SCT080 SCT200 82 75 91 79 79% 89 29.91 1012.8 0.01 0.02
24 18:53 W 7 G 18 10.00 Thunderstorm FEW027 SCT033CB SCT080 BKN250 88 75.9 68% 99 29.91 1012.9
24 17:53 W 10 G 25 10.00 Light Rain FEW020 SCT035CB SCT110 SCT250 88 77 70% 100 29.9 1012.6 0.01
24 16:53 W 9 10.00 Partly Cloudy FEW032TCU SCT110 SCT250 91 75.9 61% 103 29.9 1012.6
24 15:53 W 9 10.00 Mostly Cloudy FEW032 SCT055 SCT150 BKN250 89.1 75.9 65% 100 29.93 1013.3
24 14:53 W 10 10.00 Mostly Cloudy FEW030 SCT060 BKN250 88 75.9 68% 99 29.94 1013.9
24 13:53 W 10 10.00 Mostly Cloudy FEW030 SCT060 BKN250 88 77 89.1 80.1 70% 100 29.97 1014.7
24 12:53 SW 7 10.00 Mostly Cloudy FEW031 SCT060 SCT080 BKN250 88 75.9 68% 99 29.99 1015.5
24 11:53 SW 6 10.00 Partly Cloudy FEW060 SCT250 84.9 73.9 70% 92 30 1015.7
24 10:53 SW 6 10.00 Partly Cloudy FEW050 SCT250 84 75.9 77% 93 30 1015.6
24 09:53 SW 5 10.00 Partly Cloudy FEW050 SCT250 82.9 77 82% 92 29.98 1015.3
24 08:53 Calm 10.00 Partly Cloudy FEW050 SCT250 82 75 79% 89 29.98 1015.3
24 07:53 Calm 10.00 Partly Cloudy FEW050 SCT250 80.1 75.9 80.1 75.9 87% 85 29.97 1014.9
24 06:53 Calm 10.00 Partly Cloudy FEW050 SCT250 78.1 73.9 87% 81 29.97 1014.7
24 05:53 S 6 10.00 Partly Cloudy FEW050 SCT250 77 73.9 90% 78 29.96 1014.3
24 04:53 SE 3 10.00 Partly Cloudy FEW050 SCT250 78.1 73.9 87% 81 29.95 1014.2
24 03:53 E 5 10.00 Partly Cloudy FEW050 SCT250 78.1 73.9 87% 81 29.96 1014.6
24 02:53 SE 7 10.00 A Few Clouds FEW035 FEW250 79 75 88% 83 29.98 1015.1
24 01:53 Vrbl 3 10.00 A Few Clouds FEW250 80.1 75.9 82.9 80.1 87% 85 29.98 1015.0
24 00:53 SE 3 10.00 Fair CLR 80.1 75.9 87% 85 29.98 1015.2
23 23:53 S 6 10.00 A Few Clouds FEW040 FEW250 81 75 82% 87 29.99 1015.3
23 22:53 SE 3 10.00 Partly Cloudy FEW140 SCT250 81 75 82% 87 29.98 1015.1
23 21:53 S 6 10.00 Mostly Cloudy FEW045 FEW140 BKN250 82 75 79% 89 29.97 1014.7
23 20:53 S 3 10.00 Mostly Cloudy FEW045 FEW140 BKN250 82 73.9 77% 88 29.97 1014.6
23 19:53 S 5 10.00 Mostly Cloudy FEW045 FEW100 SCT140 BKN250 82 75.9 90 82 82% 89 29.96 1014.4
23 18:53 Vrbl 5 10.00 Mostly Cloudy FEW035CB SCT080 BKN140 BKN210 84 73.9 72% 91 29.96 1014.6
23 17:53 E 7 10.00 Mostly Cloudy FEW040 SCT080 BKN140 BKN210 88 75 66% 98 29.96 1014.5
23 16:53 E 5 10.00 Mostly Cloudy SCT045 SCT140 BKN210 86 75 70% 95 29.96 1014.5
23 15:53 W 9 10.00 Thunderstorm SCT039CB SCT140 BKN250 86 73.9 67% 94 29.97 1014.7
23 14:53 W 10 10.00 Partly Cloudy FEW038 SCT140 SCT250 88 73 61% 96 29.97 1014.9
23 13:53 W 8 G 21 10.00 Partly Cloudy FEW036 SCT140 SCT250 86 75 87.1 80.1 70% 95 30 1015.7
23 12:53 SW 8 10.00 Mostly Cloudy SCT036TCU BKN250 87.1 78.1 75% 100 30.03 1016.8
23 11:53 S 7 10.00 Partly Cloudy SCT032 SCT250 86 78.1 77% 98 30.03 1016.9
23 10:53 SW 7 10.00 Partly Cloudy SCT023 SCT250 84 77 80% 94 30.04 1017.0
23 09:53 SW 6 10.00 Partly Cloudy SCT016 SCT250 82.9 77 82% 92 30.04 1017.2
23 08:53 S 8 10.00 A Few Clouds FEW026 FEW250 82 77 85% 90 30.03 1016.8
23 07:53 S 5 10.00 Partly Cloudy FEW009 FEW028 SCT250 80.1 77 81 78.1 90% 86 30.02 1016.4
23 06:53 SE 5 10.00 Partly Cloudy FEW020 FEW100 SCT250 79 75.9 90% 83 30 1015.9
23 05:53 SE 3 10.00 Partly Cloudy FEW020 FEW100 SCT250 79 75.9 90% 83 29.99 1015.6
23 04:53 S 5 10.00 Partly Cloudy FEW020 FEW100 SCT250 79 75.9 90% 83 30 1015.7
23 03:53 SE 6 10.00 Partly Cloudy FEW020 FEW100 SCT250 79 75.9 90% 83 30.01 1016.2
23 02:53 SE 6 10.00 Partly Cloudy FEW020 SCT100 SCT250 80.1 77 90% 86 30.02 1016.4
23 01:53 SE 3 10.00 Mostly Cloudy BKN110 81 75.9 82.9 80.1 85% 87 30.03 1016.8
23 00:53 SE 3 10.00 Mostly Cloudy FEW050 SCT100 BKN250 81 75.9 85% 87 30.04 1017.1
22 23:53 S 5 10.00 Mostly Cloudy FEW050 SCT100 BKN250 81 75.9 85% 87 30.04 1017.3
22 22:53 S 7 10.00 Mostly Cloudy SCT055 BKN100 BKN250 82 75 79% 89 30.04 1017.2
22 21:53 S 6 10.00 Mostly Cloudy FEW055 BKN070 82 75 79% 89 30.05 1017.4
22 20:53 SE 6 10.00 Mostly Cloudy FEW025 SCT055 SCT080 BKN250 82.9 75 77% 90 30.03 1016.9
22 19:53 S 5 10.00 Mostly Cloudy FEW050 SCT110 BKN250 82 79 91.9 78.1 90% 92 30.04 1017.3 0.16
22 18:53 N 5 7.00 Thunderstorm Light Rain FEW030CB SCT048 BKN090 BKN250 78.1 77 97% 81 30.02 1016.4 0.16
22 17:53 E 10 G 20 10.00 Thunderstorm FEW025 BKN035CB BKN090 BKN250 84.9 75 72% 93 30.02 1016.3
22 16:53 SW 9 10.00 Thunderstorm SCT055CB BKN120 BKN250 89.1 77 68% 102 29.98 1015.3
22 15:53 SW 7 10.00 Mostly Cloudy SCT045 BKN250 91.9 73.9 56% 102 29.98 1015.2
22 14:53 SW 7 10.00 Partly Cloudy SCT043 SCT250 91.9 73.9 56% 102 30.02 1016.4
22 13:53 SW 9 10.00 A Few Clouds FEW040 FEW250 90 75.9 91 81 63% 102 30.04 1017.0
22 12:53 SW 8 10.00 Partly Cloudy SCT037 SCT250 89.1 75 63% 99 30.07 1018.0
22 11:53 SW 5 10.00 Partly Cloudy SCT032 SCT250 88 75.9 68% 99 30.1 1019.1
Date Time (edt) Wind (mph) Vis. (mi.) Weather Sky Cond. Air Dwpt Max. Min. Relative Humidity Wind Chill (°F) Heat Index (°F) altimeter (in) sea level (mb) 1 hr 3 hr 6 hr
6 hour
Temperature (ºF) Pressure Precipitation (in)